Location: アルンシュタイン
(50.0000°N, 10.0000°E)
Time: 16:39:52
(UTC+02:00)

Vanguard 1 - Pass Details

Date: 16 September 2024
Orbit: 649 x 3825 km, 34.3° (Epoch: 02 October)

Event Time Altitude Azimuth Distance (km) Brightness Sun altitude
Rises 13:15:59 0° 225° (SW) 6,450 14.7 42.3°
Reaches altitude 10° 13:22:04 10° 213° (SSW) 4,812 14.4 42.3°
Maximum altitude 13:30:32 22° 170° (S) 2,996 14.0 42.2°
Drops below altitude 10° 13:36:19 10° 123° (ESE) 3,142 13.0 42.1°
Sets 13:39:15 0° 107° (ESE) 3,768 13.2 42.1°
